Regional Weather Roundup
Issued by NWS Midland/Odessa, TX

Skip options and go directly to product.
Home | Oldest Version | Previous Version | Current Version | All | Text Only | Save Text | Print | Product List | Glossary On

Skip product version selection by date and time.   
975
ASUS44 KMAF 311710
RWRMAF
MIDLAND AREA WEATHER ROUNDUP
NATIONAL WEATHER SERVICE MIDLAND TX
1200 PM CDT MON AUG 31 2015

...IN SOUTHWEST TEXAS AND SOUTHEAST NEW MEXICO...

CITY           SKY/WX    TMP DP  RH WIND       PRES   REMARKS
ALPINE         SUNNY     84  48  28 W9        30.21S
ANDREWS        FAIR      83  55  37 S7        30.10S
ARTESIA        SUNNY     82  55  39 SE15      30.08F
BIG SPRING     SUNNY     83  56  39 S9        30.10S
CARLSBAD       SUNNY     88  51  28 SE15      30.06S
DRYDEN           N/A     86  64  47 S10G18    30.04F
FORT STOCKTON  SUNNY     86  53  32 VRB5      30.07S
GUAD PASS      SUNNY     80  51  36 W13       30.23R
HOBBS          SUNNY     82  54  36 SE14      30.12S
MARFA          SUNNY     79  48  34 SW5       30.20F
MIDLAND AIRPK  SUNNY     87  55  32 S9        30.08F
MIDLAND INTL   SUNNY     86  57  37 S13       30.08R
ODESSA         SUNNY     84  54  35 S9        30.09S
PECOS          SUNNY     85  53  33 CALM      30.05S
PRESIDIO       NOT AVBL
SEMINOLE       SUNNY     85  52  32 SW10      30.11S
SNYDER         SUNNY     83  62  47 S7        30.08S
WINK           SUNNY     85  56  37 VRB7      30.06S
$$
...OTHER STATIONS IN TEXAS...

CITY           SKY/WX    TMP DP  RH WIND       PRES   REMARKS
ABILENE        SUNNY     87  63  44 S10       30.06F
AMARILLO       SUNNY     85  53  33 S21       30.08S
AUSTIN         PTSUNNY   86  69  56 SW9       30.03F
BROWNSVILLE    PTSUNNY   90  75  61 SE16      29.97F HX 100
CORPUS CHRISTI PTSUNNY   93  73  52 E13       29.99S THUNDER HX 102
DALLAS FTW     MOSUNNY   89  63  41 SE7       30.03F
DEL RIO        SUNNY     89  69  51 SE13      30.00S
EL PASO        SUNNY     84  50  30 S7        30.10R
HOUSTON INT    CLOUDY    87  71  58 VRB5      30.05S
LUBBOCK        SUNNY     84  55  36 S12       30.09S
SAN ANGELO     SUNNY     87  64  46 VRB6      30.05F
SAN ANTONIO    PTSUNNY   85  68  56 VRB6      30.04F
WACO           MOSUNNY   87  69  54 SE8       30.04F
WICHITA FALLS  NOT AVBL
$$
...OTHER LOCATIONS IN NEW MEXICO...

CITY           SKY/WX    TMP DP  RH WIND       PRES   REMARKS
ALAMAGORDO     SUNNY     84  45  24 S3        30.12F
ALBUQUERQUE    MOSUNNY   81  49  32 NE5       30.21S
CANNON AFB     SUNNY     85  49  29 SW12G21   30.11S
CLOVIS         SUNNY     84  52  32 S21       30.12F
HOLLOMAN AFB   SUNNY     85  47  25 S6        30.10S
ROSWELL          N/A    N/A N/A N/A S16       30.08S
RUIDOSO        SUNNY     77  46  33 MISG      30.31R
SANTA FE       SUNNY     79  45  29 N13       30.25S
TRUTH OR CONSE SUNNY     85  51  31 NE9       30.15S
TUCUMCARI      SUNNY     86  51  29 SW13G20   30.05S
$$

USA.gov is the U.S. government's official web portal to all federal, state and local government web resources and services.